Regional Weather Roundup
Issued by NWS

Home | Current Version | Previous Version | Graphics & Text | Print | Product List | Glossary On
Versions: 1 2 3 4 5 6 7 8 9 10 11 12 13 14 15 16 17 18 19 20 21 22 23 24 25 26 27 28 29 30 31 32 33 34 35 36 37 38 39 40 41 42 43 44 45 46 47 48 49 50
000
ASUS43 KIND 041059
RWRIN

WEATHER ROUNDUP FOR INDIANA
NATIONAL WEATHER SERVICE INDIANAPOLIS IN
600 AM EST SUN DEC 04 2016

NOTE: "FAIR" INDICATES FEW OR NO CLOUDS BELOW 12,000 FEET WITH NO
SIGNIFICANT WEATHER AND/OR OBSTRUCTIONS TO VISIBILITY.

* - STATION DOES NOT REPORT WEATHER SUCH AS PRECIPITATION OR FOG.

+ - STATION NOT QUALITY CONTROLLED BY THE NATIONAL WEATHER SERVICE.
    USE DATA WITH CAUTION...ESPECIALLY DEWPOINT AND RELATIVE
    HUMIDITY OBSERVATIONS.

INZ001>003-010>013-019-020-041200-
NORTHWEST INDIANA

CITY           SKY/WX    TMP DP  RH WIND       PRES   REMARKS
GARY /AIRPORT/ CLOUDY    32  28  86 CALM      30.20F
LA PORTE +     CLOUDY    32  32 100 CALM      30.20F

$$

LMZ046-743>745-041200-
SOUTHERN LAKE MICHIGAN

STATION/POSITION TIME  TEMP    WIND        PRES    WAVE
                       AIR SEA DIR/SP/G            HT
                 (UTC) (F)     (DEG/KT/KT) (MB)    (FT)
BURNS HARBOR     1040   33     170/  4/  8 1022.7F
MICHIGAN CITY    1030   32     120/  4/  5   N/A

$$

INZ004-005-014>016-021>024-041200-
NORTH CENTRAL INDIANA

CITY           SKY/WX    TMP DP  RH WIND       PRES   REMARKS
GOSHEN         CLOUDY    32  26  78 E5        30.19F WCI  27
SOUTH BEND     CLOUDY    31  27  85 E5        30.20F WCI  26
WARSAW +       CLOUDY    30  27  86 E3        30.20F

$$

INZ006>009-017-018-025>027-041200-
NORTHEAST INDIANA

CITY           SKY/WX    TMP DP  RH WIND       PRES   REMARKS
ANGOLA *+      CLOUDY    30  28  93 CALM      30.20F
FORT WAYNE     CLOUDY    32  26  78 E6        30.21F WCI  26
KENDALLVILLE + CLOUDY    32  28  86 E3        30.20F

$$

INZ028-029-035-036-043>045-051>053-041200-
WEST CENTRAL INDIANA

CITY           SKY/WX    TMP DP  RH WIND       PRES   REMARKS
CRAWFORDSVL +  CLOUDY    32  30  94 E3        30.18F
GREENCASTLE +  CLOUDY    32  32 100 E5        30.17F WCI  27
LAFAYETTE      CLOUDY    32  28  85 E3        30.19F
TERRE HAUTE    CLOUDY    35  29  78 E5        30.17F WCI  31

$$

INZ030>032-037>040-046>048-054>057-064-065-041200-
CENTRAL INDIANA

CITY           SKY/WX    TMP DP  RH WIND       PRES   REMARKS
FRANKFORT +    CLOUDY    34  31  88 SE6       30.19F WCI  29
GREENWOOD *+   CLOUDY    34  31  87 CALM      30.19F
INDIANAPOLIS   CLOUDY    34  28  79 E7        30.17F WCI  28
-EAGLE CREEK   CLOUDY    34  28  79 E6        30.18F WCI  29
KOKOMO +       CLOUDY    32  30  92 SE5       30.19F WCI  27
SHELBYVILLE    CLOUDY    35  30  82 E6        30.18F WCI  30
ZIONSVILLE +   CLOUDY    32  28  86 E3        30.19F

$$

INZ033-034-041-042-049-050-058-059-041200-
EAST CENTRAL INDIANA

CITY           SKY/WX    TMP DP  RH WIND       PRES   REMARKS
MUNCIE         CLOUDY    33  30  88 SE5       30.19F WCI  29

$$

INZ060-061-067>069-081>083-085>088-041200-
SOUTHWEST INDIANA

CITY           SKY/WX    TMP DP  RH WIND       PRES   REMARKS
EVANSVILLE     CLOUDY    39  34  82 NE5       30.16F
HUNTINGBURG *+ CLOUDY    39  32  75 E6        30.16F

$$

INZ062-063-066-070>080-084-089>092-041200-
SOUTH CENTRAL AND SOUTHEAST INDIANA

CITY           SKY/WX    TMP DP  RH WIND       PRES   REMARKS
BLOOMINGTON    CLOUDY    35  28  75 SE6       30.16F WCI  30
MADISON *+     CLOUDY    36  30  80 E3        30.20F
SEYMOUR +      CLOUDY    37  32  81 E3        30.18F

$$





USA.gov is the U.S. government's official web portal to all federal, state and local government web resources and services.